| time (UTC) | temp F | wind direction | speed MPH | gust MPH | rain 1hr in | rain 24hr in | rain mn in | humidity % | barometer mb |
| 20260502163008 | 55 | 268 | 7.0 | 9.0 | 0.00 | 0.00 | 0.00 | 61 | 1024.8 |
| 20260502161623 | 55 | 260 | 3.0 | 8.0 | 0.00 | 0.00 | 0.00 | 61 | 1024.7 |
| 20260502151522 | 52 | 233 | 5.0 | 6.0 | 0.00 | 0.01 | 0.00 | 64 | 1024.5 |
| 20260502123054 | 46 | 103 | 11.0 | 17.0 | 0.00 | 0.14 | 0.00 | 67 | 1023.7 |
| 20260502121554 | 46 | 108 | 12.0 | 19.0 | 0.00 | 0.14 | 0.00 | 67 | 1023.5 |
| 20260502114547 | 46 | 117 | 11.0 | 17.0 | 0.00 | 0.17 | 0.00 | 67 | 1023.3 |
| 20260502113044 | 46 | 100 | 14.0 | 19.0 | 0.00 | 0.17 | 0.00 | 67 | 1023.1 |
| 20260502111544 | 46 | 100 | 12.0 | 18.0 | 0.00 | 0.17 | 0.00 | 67 | 1023.1 |
| 20260502110043 | 46 | 94 | 9.0 | 18.0 | 0.00 | 0.17 | 0.00 | 67 | 1023.1 |
| 20260502104541 | 46 | 79 | 12.0 | 16.0 | 0.00 | 0.17 | 0.00 | 67 | 1023.1 |
| 20260502103044 | 46 | 69 | 13.0 | 19.0 | 0.00 | 0.17 | 0.00 | 67 | 1023.0 |
| 20260502101550 | 46 | 82 | 15.0 | 19.0 | 0.00 | 0.17 | 0.00 | 67 | 1022.7 |
| 20260502071527 | 46 | 93 | 17.0 | 24.0 | 0.00 | 0.17 | 0.00 | 67 | 1022.7 |
| 20260502070024 | 46 | 87 | 17.0 | 23.0 | 0.00 | 0.17 | 0.00 | 67 | 1022.5 |
| 20260502064523 | 46 | 100 | 17.0 | 25.0 | 0.00 | 0.17 | 0.00 | 67 | 1022.5 |
| 20260502063027 | 46 | 86 | 16.0 | 24.0 | 0.00 | 0.17 | 0.00 | 67 | 1022.7 |
| 20260502061518 | 45 | 84 | 16.0 | 22.0 | 0.00 | 0.17 | 0.00 | 66 | 1022.5 |
| 20260502060016 | 45 | 80 | 16.0 | 23.0 | 0.00 | 0.17 | 0.17 | 66 | 1022.4 |
| 20260502054510 | 45 | 80 | 19.0 | 26.0 | 0.00 | 0.17 | 0.17 | 66 | 1022.4 |
| 20260502053006 | 45 | 105 | 20.0 | 26.0 | 0.00 | 0.17 | 0.17 | 65 | 1022.5 |
| 20260502051503 | 45 | 103 | 20.0 | 25.0 | 0.00 | 0.17 | 0.17 | 65 | 1022.6 |
| 20260502044555 | 45 | 81 | 20.0 | 27.0 | 0.00 | 0.17 | 0.17 | 64 | 1022.5 |
| 20260502043055 | 45 | 80 | 19.0 | 26.0 | 0.00 | 0.17 | 0.17 | 63 | 1022.4 |
| 20260502041604 | 45 | 94 | 21.0 | 29.0 | 0.00 | 0.17 | 0.17 | 63 | 1022.1 |
| 20260502040044 | 45 | 87 | 20.0 | 30.0 | 0.00 | 0.17 | 0.17 | 63 | 1021.9 |
| 20260502034536 | 45 | 96 | 22.0 | 28.0 | 0.00 | 0.17 | 0.17 | 63 | 1021.8 |
| 20260502033036 | 45 | 81 | 20.0 | 28.0 | 0.00 | 0.17 | 0.17 | 62 | 1021.5 |
| 20260502031528 | 45 | 84 | 20.0 | 29.0 | 0.00 | 0.17 | 0.17 | 62 | 1021.3 |
| 20260502030023 | 45 | 93 | 19.0 | 30.0 | 0.00 | 0.17 | 0.17 | 62 | 1021.0 |
| 20260502024518 | 45 | 107 | 20.0 | 32.0 | 0.00 | 0.17 | 0.17 | 64 | 1020.8 |
| 20260502023018 | 46 | 84 | 20.0 | 29.0 | 0.00 | 0.17 | 0.17 | 65 | 1020.6 |
| 20260502021509 | 46 | 79 | 19.0 | 27.0 | 0.00 | 0.17 | 0.17 | 67 | 1020.1 |
| 20260502020006 | 47 | 76 | 19.0 | 27.0 | 0.00 | 0.17 | 0.17 | 67 | 1020.0 |
| 20260502014500 | 47 | 94 | 21.0 | 28.0 | 0.00 | 0.17 | 0.17 | 67 | 1019.8 |
| 20260502013101 | 48 | 99 | 20.0 | 27.0 | 0.00 | 0.17 | 0.17 | 67 | 1019.7 |
| 20260502011553 | 48 | 84 | 18.0 | 26.0 | 0.00 | 0.17 | 0.17 | 67 | 1019.5 |
| 20260502010053 | 48 | 70 | 17.0 | 25.0 | 0.00 | 0.17 | 0.17 | 67 | 1019.3 |
| 20260502004543 | 49 | 71 | 18.0 | 26.0 | 0.00 | 0.17 | 0.17 | 67 | 1019.2 |
| 20260502003040 | 50 | 91 | 20.0 | 27.0 | 0.00 | 0.17 | 0.17 | 65 | 1019.1 |
| 20260502001541 | 50 | 94 | 22.0 | 27.0 | 0.00 | 0.17 | 0.17 | 65 | 1019.1 |
| 20260502000038 | 50 | 82 | 23.0 | 28.0 | 0.00 | 0.17 | 0.17 | 65 | 1018.6 |
| 20260501234537 | 51 | 77 | 23.0 | 30.0 | 0.00 | 0.17 | 0.17 | 63 | 1018.4 |
| 20260501233035 | 52 | 75 | 23.0 | 31.0 | 0.00 | 0.17 | 0.17 | 62 | 1017.8 |
| 20260501231549 | 52 | 78 | 20.0 | 29.0 | 0.00 | 0.17 | 0.17 | 62 | 1017.8 |
| 20260501230030 | 52 | 84 | 18.0 | 33.0 | 0.00 | 0.17 | 0.17 | 62 | 1017.6 |
| 20260501223143 | 52 | 89 | 21.0 | 32.0 | 0.00 | 0.17 | 0.17 | 62 | 1017.5 |
| 20260501221535 | 53 | 73 | 23.0 | 31.0 | 0.00 | 0.17 | 0.17 | 60 | 1017.4 |
| 20260501214631 | 54 | 74 | 22.0 | 28.0 | 0.00 | 0.17 | 0.17 | 57 | 1017.5 |
| 20260501213044 | 55 | 74 | 19.0 | 26.0 | 0.00 | 0.17 | 0.17 | 57 | 1017.9 |
| 20260501211507 | 54 | 74 | 21.0 | 27.0 | 0.00 | 0.17 | 0.17 | 55 | 1017.9 |
| 20260501204532 | 55 | 70 | 20.0 | 25.0 | 0.00 | 0.17 | 0.17 | 55 | 1018.4 |
| 20260501203046 | 55 | 79 | 17.0 | 24.0 | 0.00 | 0.17 | 0.17 | 56 | 1018.5 |
| 20260501201542 | 54 | 83 | 17.0 | 23.0 | 0.00 | 0.17 | 0.17 | 59 | 1018.8 |
| 20260501200139 | 53 | 77 | 16.0 | 22.0 | 0.00 | 0.17 | 0.17 | 61 | 1018.9 |
| 20260501194604 | 53 | 91 | 19.0 | 23.0 | 0.00 | 0.17 | 0.17 | 64 | 1018.9 |
| 20260501193026 | 52 | 79 | 18.0 | 24.0 | 0.00 | 0.17 | 0.17 | 65 | 1019.0 |
| 20260501191622 | 52 | 81 | 15.0 | 22.0 | 0.00 | 0.17 | 0.17 | 66 | 1019.1 |
| 20260501184550 | 50 | 98 | 16.0 | 21.0 | 0.00 | 0.17 | 0.17 | 67 | 1019.2 |
| 20260501183006 | 50 | 101 | 15.0 | 18.0 | 0.00 | 0.17 | 0.17 | 67 | 1019.2 |
| 20260501181600 | 50 | 68 | 16.0 | 21.0 | 0.00 | 0.17 | 0.17 | 66 | 1019.2 |
| 20260501174556 | 48 | 75 | 15.0 | 24.0 | 0.00 | 0.17 | 0.17 | 67 | 1018.9 |
| 20260501173002 | 48 | 92 | 20.0 | 22.0 | 0.00 | 0.17 | 0.17 | 67 | 1018.7 |
| 20260501171552 | 48 | 95 | 15.0 | 21.0 | 0.00 | 0.17 | 0.17 | 62 | 1018.6 |